STARLINK-34424, 64295

Orbit data source: Space-Track

STARLINK-34424, 64295 is a payload satellite owned by SpaceX/Seattle (US) in LEO that was launched on Sun, 08 Jun 2025 UTC via an FALCON 9 launch vehicle from the Air Force Western Test Range (AFWTR). Payload-class satellites include a variety of spacecraft equipped with specific instruments for various scientific and technological missions. These include communications satellites like Starlink; space stations such as the ISS; scientific satellites like the Hubble; Earth observation satellites from companies like Planet Labs, Umbra, and HawkEye 360; GPS; miniature CubeSats for education and research; and military/defense satellites.

Loading next visibility...
Identifier
64295, 2025-123E
Orbit
LEO
Country
Flag of USUS
Related business
Manufacturer
SpaceX/Seattle
Mission
Operational Commercial Communications
Bus & Motor
STARLINK V2MO, Unknown motor
Mass
575 kg wet, ~530 kg dry
Launch date (UTC)
2025-06-08 (10 months ago)
Launch vehicle
FALCON 9
Launch site
Air Force Western Test Range (AFWTR)
Object type
Payload
Rocket body
Debris
Shape & HBR
Box + 2 Pan, 17.7 m
Radar Cross Section
36.964 m², Large (>1 m²)

Expand to show TLE details & history
Last TLE update: 19 hours ago

TLE from 19 hours ago
0 STARLINK-34424
1 64295U 25123E   26093.52247917  .00009203  00000-0  77769-3 0  9999
2 64295  69.9998 132.0217 0004546 270.8772  89.1866 14.98346431 46557
Epoch: 2026-04-03T12:32Z
TLE epoch observation values (Epoch: 2026-04-03T12:32:22.200Z)
Latitude
-0.00003°
Longitude
112.07379°
Altitude
574.386 km
Speed
7.574 km/s
True Right ascension
08h 48m 05s
True Declination
0° 00' 00"
Sunlit
Object was in full shadow at epoch
Visualization orbit readout
Latitude
Unknown
Longitude
Unknown
Altitude
Unknown
Speed
Unknown
Apparent Right ascension
Unknown
Apparent Declination
Unknown
Sunlit
N/A
Visualization observer readout
Local Sidereal Time
13:04:56
Azimuth
Unknown
Elevation
Unknown
Doppler factor
Unknown
Orbital elements
Apogee altitude
573.112 km
Perigee altitude
566.795 km
Semi-major axis
6,948.09 km
Eccentricity
0.00045
Inclination
69.9998°
RAAN
132.0217°
Arg. of periapsis
270.8772°
True anomaly
89.23869°
Mean anomaly
89.1866°
Eccentric anomaly
89.21264°
Mean motion
3.74753 °/min
Orbital period
96.06 mins
BSTAR
0.00077769
Loading maneuver chart data...
Computing Atmospheric mass density...
Loading historical data...
Loading historical data...
Loading historical data...
Loading historical data...
Loading historical data...
Loading historical data...
Loading historical data...

Documentation

Showing up to 5 results
|